Kemnitz Heliport

DE-0384 · Mecklenburg-Vorpommern, Alemania

METAR pasados DE-0384 · Kemnitz Heliport

A continuación puedes ver los METAR de los últimos días. Selecciona un año para ver los METAR más antiguos, desde el año 2007 en adelante.

23 de abril de 2024

Hora Código Tiempo Temp. Visibilidad Cielo nuboso Viento METAR/SPECI
07:20
V
2 °C 10 km+ 3.900 ft 260° 260° 8 kt METAR EDAH 230520Z AUTO 26008KT 9999 // FEW017/// BKN039/// 02/M00 Q1020
06:50
V
3 °C 10 km+ 4.600 ft 240° 240° 7 kt METAR EDAH 230450Z AUTO 24007KT 9999 // FEW016/// SCT018/// BKN046/// 03/M00 Q1020
06:20
V
2 °C 10 km+ 19.000 ft 250° 250° 7 kt METAR EDAH 230420Z AUTO 25007KT 9999 // FEW019/// SCT140/// BKN190/// 02/M01 Q1020
05:50
V
2 °C 10 km+ 16.000 ft 240° 240° 6 kt METAR EDAH 230350Z AUTO 24006KT 9999 // FEW140/// BKN160/// 02/M01 Q1020
05:20
V
1 °C 10 km+ 4.900 ft 260° 260° 3 kt METAR EDAH 230320Z AUTO 26003KT 220V300 9999 // FEW022/// BKN049/// BKN180/// 01/M02 Q1020
04:50
M
1 °C 10 km+ 2.400 ft 320° 320° 3 kt METAR EDAH 230250Z AUTO 32003KT 9999 // BKN024/// OVC049/// 01/M02 Q1020
04:20
V
1 °C 10 km+ - 230° 230° 4 kt METAR EDAH 230220Z AUTO 23004KT 210V270 9999 // FEW024/// SCT049/// 01/M02 Q1021
03:50
V
2 °C 10 km+ - 210° 210° 6 kt METAR EDAH 230150Z AUTO 21006KT 9999 // SCT150/// 02/M02 Q1021
03:20
V
0 °C 10 km+ 15.000 ft Var Var 2 kt METAR EDAH 230120Z AUTO VRB02KT 9999 // BKN150/// M00/M03 Q1021
02:50
V
0 °C 10 km+ 5.200 ft 360° 360° 0 kt METAR EDAH 230050Z AUTO 00000KT 9999 // BKN052/// 00/M02 Q1021
02:20
V
1 °C 10 km+ 5.100 ft 360° 360° 0 kt METAR EDAH 230020Z AUTO 00000KT 9999 // OVC051/// 01/M02 Q1022
01:50
V
1 °C 10 km+ 4.900 ft 030° 030° 1 kt METAR EDAH 222350Z AUTO 03001KT 9999 // OVC049/// 01/M01 Q1022
01:20
V
1 °C 10 km+ 5.000 ft 360° 360° 2 kt METAR EDAH 222320Z AUTO 36002KT 9999 // BKN050/// OVC150/// 01/M03 Q1022
00:50
V
1 °C 10 km+ 4.900 ft 320° 320° 2 kt METAR EDAH 222250Z AUTO 32002KT 9999 // FEW042/// BKN049/// BKN150/// 01/M03 Q1022
00:20
V
2 °C 10 km+ 4.900 ft 360° 360° 0 kt METAR EDAH 222220Z AUTO 00000KT 9999 // OVC049/// 02/M02 Q1022

22 de abril de 2024

Hora Código Tiempo Temp. Visibilidad Cielo nuboso Viento METAR/SPECI
23:50
V
2 °C 10 km+ 4.500 ft 360° 360° 0 kt METAR EDAH 222150Z AUTO 00000KT 9999 // OVC045/// 02/M02 Q1022
23:20
V
1 °C 10 km+ 4.000 ft 270° 270° 1 kt METAR EDAH 222120Z AUTO 27001KT 9999 // BKN040/// BKN045/// OVC052/// 01/M03 Q1023
22:50
V
2 °C 10 km+ 3.900 ft 270° 270° 1 kt METAR EDAH 222050Z AUTO 27001KT 9999 // OVC039/// 02/M02 Q1023
22:20
V
2 °C 10 km+ 3.700 ft Var Var 1 kt METAR EDAH 222020Z AUTO VRB01KT 9999 // BKN037/// OVC048/// 02/M03 Q1023
21:50
V
3 °C 10 km+ 3.500 ft 360° 360° 0 kt METAR EDAH 221950Z AUTO 00000KT 9999 // OVC035/// 03/M04 Q1023
21:20
V
2 °C 10 km+ 3.500 ft Var Var 1 kt METAR EDAH 221920Z AUTO VRB01KT 9999 // OVC035/// 02/M03 Q1023
20:50
V
3 °C 10 km+ 3.600 ft Var Var 2 kt METAR EDAH 221850Z AUTO VRB02KT 9999 // OVC036/// 03/M03 Q1023
20:20
V
3 °C 10 km+ 3.600 ft 360° 360° 3 kt METAR EDAH 221820Z AUTO 36003KT 320V040 9999 // OVC036/// 03/M03 Q1023
19:50
V
3 °C 10 km+ 3.700 ft 020° 020° 4 kt METAR EDAH 221750Z AUTO 02004KT 330V070 9999 // BKN037/// OVC049/// 03/M03 Q1023
19:20
V
3 °C 10 km+ 4.000 ft 020° 020° 5 kt METAR EDAH 221720Z AUTO 02005KT 340V050 9999 // BKN040/// OVC048/// 03/M03 Q1023
18:50
V
3 °C 10 km+ 5.200 ft 010° 010° 6 kt METAR EDAH 221650Z AUTO 01006KT 350V100 9999 // FEW040/// OVC052/// 03/M03 Q1023
18:20
V
3 °C 10 km+ 4.900 ft 020° 020° 5 kt METAR EDAH 221620Z AUTO 02005KT 330V080 9999 // FEW027/// BKN049/// 03/M02 Q1023
17:50
V
4 °C 10 km+ - 020° 020° 8 kt METAR EDAH 221550Z 02008KT 9999 SCT034 04/M03 Q1023
17:20
V
4 °C 10 km+ - 010° 010° 7 kt METAR EDAH 221520Z 01007KT 330V030 9999 SCT034 04/M03 Q1023
16:50
V
5 °C 10 km+ 3.200 ft 020° 020° 6 kt METAR EDAH 221450Z 02006KT 320V070 9999 BKN032 05/M03 Q1023
16:20
V
5 °C 10 km+ 4.400 ft 020° 020° 7 kt METAR EDAH 221420Z 02007KT 340V070 9999 FEW029 BKN044 05/M02 Q1023
15:50
V
4 °C 10 km+ - 030° 030° 8 kt METAR EDAH 221350Z 03008KT 350V070 9999 FEW029 04/M02 Q1023
15:20
V
4 °C 10 km+ 4.800 ft 020° 020° 9 kt METAR EDAH 221320Z 02009KT 350V060 9999 FEW030 OVC048 04/M03 Q1023
14:50
V
4 °C 10 km+ 4.600 ft 020° 020° 8 kt METAR EDAH 221250Z 02008KT 340V060 9999 FEW032 SCT036 OVC046 04/M03 Q1023
14:20
V
4 °C 10 km+ 4.400 ft 020° 020° 7 kt METAR EDAH 221220Z 02007KT 340V040 9999 FEW030 SCT036 OVC044 04/M03 Q1023
13:50
M
4 °C 10 km+ 3.000 ft 030° 030° 8 kt METAR EDAH 221150Z 03008KT 350V070 9999 BKN030 OVC048 04/M02 Q1023
13:20
V
4 °C 10 km+ 3.900 ft 020° 020° 7 kt METAR EDAH 221120Z 02007KT 320V060 9999 FEW029 BKN039 OVC049 04/M03 Q1023
12:50
M
5 °C 10 km+ 2.700 ft 030° 030° 5 kt METAR EDAH 221050Z 03005KT 340V070 9999 BKN027 BKN046 05/M02 Q1024
12:20
M
3 °C 10 km+ 3.000 ft 020° 020° 7 kt METAR EDAH 221020Z 02007KT 350V050 9999 OVC030 03/M03 Q1024
11:50
M
4 °C 10 km+ 2.200 ft 010° 010° 7 kt METAR EDAH 220950Z 01007KT 340V050 9999 OVC022 04/M02 Q1024
11:20
M
4 °C 10 km+ 2.400 ft 020° 020° 8 kt METAR EDAH 220920Z 02008KT 350V060 9999 FEW019 OVC024 04/M01 Q1024
10:50
M
3 °C 10 km+ 2.700 ft 360° 360° 5 kt METAR EDAH 220850Z 36005KT 310V050 9999 FEW011 OVC027 03/M01 Q1024
10:20
M
2 °C 10 km+ 1.400 ft 010° 010° 7 kt METAR EDAH 220820Z 01007KT 320V050 9999 -RA BKN014 OVC039 02/M00 Q1024
09:50
V
3 °C 10 km+ 3.700 ft 350° 350° 6 kt METAR EDAH 220750Z 35006KT 310V020 9999 FEW016 SCT027 OVC037 03/M01 Q1024
09:20
V
3 °C 10 km+ 3.400 ft 360° 360° 7 kt METAR EDAH 220720Z 36007KT 330V030 9999 FEW022 SCT029 OVC034 03/M02 Q1024
08:50
V
3 °C 10 km+ 3.100 ft 010° 010° 7 kt METAR EDAH 220650Z 01007KT 340V050 9999 FEW023 OVC031 03/M01 Q1024
08:20
M
2 °C 10 km+ 2.500 ft 350° 350° 6 kt METAR EDAH 220620Z AUTO 35006KT 310V030 9999 // BKN025/// OVC032/// 02/M02 Q1024
07:50
V
3 °C 10 km+ 7.600 ft 010° 010° 5 kt METAR EDAH 220550Z AUTO 01005KT 320V050 9999 // FEW051/// OVC076/// 03/M02 Q1024
07:20
V
2 °C 10 km+ 6.000 ft 010° 010° 8 kt METAR EDAH 220520Z AUTO 01008KT 330V040 9999 // SCT032/// OVC060/// 02/M03 Q1024
06:50
M
2 °C 10 km+ 2.800 ft 010° 010° 5 kt METAR EDAH 220450Z AUTO 01005KT 320V040 9999 // BKN028/// OVC046/// 02/M03 Q1024
06:20
M
2 °C 10 km+ 2.300 ft 010° 010° 6 kt METAR EDAH 220420Z AUTO 01006KT 340V060 9999 // BKN023/// OVC048/// 02/M02 Q1024
05:50
M
2 °C 10 km+ 2.300 ft 020° 020° 6 kt METAR EDAH 220350Z AUTO 02006KT 350V070 9999 // BKN023/// BKN029/// OVC070/// 02/M02 Q1024
05:20
M
2 °C 10 km+ 2.400 ft 030° 030° 4 kt METAR EDAH 220320Z AUTO 03004KT 350V070 9999 // BKN024/// BKN030/// OVC069/// 02/M01 Q1024
04:50
M
2 °C 10 km+ 3.000 ft 030° 030° 6 kt METAR EDAH 220250Z AUTO 03006KT 340V060 9999 // OVC030/// 02/M02 Q1025
04:20
V
3 °C 10 km+ 3.600 ft 030° 030° 6 kt METAR EDAH 220220Z AUTO 03006KT 360V070 9999 // FEW027/// OVC036/// 03/M03 Q1025
03:50
V
3 °C 10 km+ 3.400 ft 030° 030° 6 kt METAR EDAH 220150Z AUTO 03006KT 350V060 9999 // SCT029/// OVC034/// 03/M03 Q1025
03:20
V
3 °C 10 km+ 3.600 ft 040° 040° 5 kt METAR EDAH 220120Z AUTO 04005KT 360V070 9999 // FEW028/// OVC036/// 03/M02 Q1025
02:50
V
3 °C 10 km+ 3.100 ft 030° 030° 6 kt METAR EDAH 220050Z AUTO 03006KT 360V080 9999 // BKN031/// OVC036/// 03/M03 Q1025
02:20
V
3 °C 10 km+ 3.200 ft 040° 040° 7 kt METAR EDAH 220020Z AUTO 04007KT 360V080 9999 // BKN032/// BKN046/// OVC062/// 03/M03 Q1025
01:50
V
3 °C 10 km+ 3.400 ft 040° 040° 7 kt METAR EDAH 212350Z AUTO 04007KT 010V080 9999 // SCT028/// BKN034/// OVC046/// 03/M02 Q1025
01:20
V
3 °C 10 km+ 4.900 ft 030° 030° 8 kt METAR EDAH 212320Z AUTO 03008KT 360V060 9999 // FEW032/// OVC049/// 03/M03 Q1026
00:50
V
3 °C 10 km+ 4.700 ft 040° 040° 9 kt METAR EDAH 212250Z AUTO 04009KT 010V070 9999 // FEW035/// OVC047/// 03/M03 Q1026
00:20
V
3 °C 10 km+ 4.500 ft 050° 050° 8 kt METAR EDAH 212220Z AUTO 05008KT 9999 // FEW035/// OVC045/// 03/M03 Q1026

21 de abril de 2024

Hora Código Tiempo Temp. Visibilidad Cielo nuboso Viento METAR/SPECI
23:50
V
3 °C 10 km+ 4.300 ft 040° 040° 10 kt METAR EDAH 212150Z AUTO 04010KT 360V070 9999 // FEW028/// OVC043/// 03/M02 Q1026
23:20
V
3 °C 10 km+ 3.200 ft 040° 040° 7 kt METAR EDAH 212120Z AUTO 04007KT 010V070 9999 // BKN032/// OVC043/// 03/M03 Q1026
22:50
V
3 °C 10 km+ 3.600 ft 040° 040° 7 kt METAR EDAH 212050Z AUTO 04007KT 010V070 9999 // SCT031/// BKN036/// BKN042/// 03/M03 Q1026
22:20
M
3 °C 10 km+ 3.000 ft 050° 050° 7 kt METAR EDAH 212020Z AUTO 05007KT 9999 // BKN030/// BKN044/// 03/M04 Q1026
21:50
V
3 °C 10 km+ - 050° 050° 8 kt METAR EDAH 211950Z AUTO 05008KT 9999 // SCT033/// 03/M04 Q1026
21:20
V
3 °C 10 km+ - 050° 050° 6 kt METAR EDAH 211920Z AUTO 05006KT 020V080 9999 // NCD 03/M04 Q1026
20:50
V
3 °C 10 km+ - 060° 060° 7 kt METAR EDAH 211850Z AUTO 06007KT 030V090 9999 // NCD 03/M05 Q1026
20:20
V
3 °C 10 km+ - 070° 070° 7 kt METAR EDAH 211820Z AUTO 07007KT 9999 // NCD 03/M06 Q1026
19:50
V
4 °C 10 km+ - 060° 060° 10 kt METAR EDAH 211750Z AUTO 06010KT 9999 // NCD 04/M06 Q1025
19:20
V
4 °C 10 km+ - 050° 050° 11 kt METAR EDAH 211720Z AUTO 05011KT 010V080 9999 // NCD 04/M05 Q1025
18:50
V
4 °C 10 km+ - 050° 050° 11 kt METAR EDAH 211650Z 05011KT 9999 FEW037 04/M05 Q1025
18:20
V
5 °C 10 km+ - 050° 050° 13 - 24 kt METAR EDAH 211620Z 05013G24KT 360V080 9999 FEW038 05/M05 Q1025
17:50
V
5 °C 10 km+ - 060° 060° 13 kt METAR EDAH 211550Z 06013KT 030V090 9999 SCT037 05/M04 Q1025
17:20
V
5 °C 10 km+ - 060° 060° 14 - 25 kt METAR EDAH 211520Z 06014G25KT 360V080 9999 FEW035 05/M04 Q1025
16:50
V
5 °C 10 km+ - 060° 060° 14 kt METAR EDAH 211450Z 06014KT 010V090 9999 SCT034 05/M03 Q1025
16:20
V
6 °C 10 km+ - 050° 050° 12 kt METAR EDAH 211420Z 05012KT 010V080 9999 SCT033 06/M03 Q1025
15:50
V
5 °C 10 km+ - 060° 060° 14 kt METAR EDAH 211350Z 06014KT 020V090 9999 SCT033 05/M03 Q1025
15:20
V
6 °C 10 km+ - 050° 050° 14 kt METAR EDAH 211320Z 05014KT 020V090 9999 SCT034 06/M02 Q1025
14:50
V
6 °C 10 km+ - 040° 040° 13 - 25 kt METAR EDAH 211250Z 04013G25KT 360V070 9999 SCT032 06/M02 Q1025
14:20
V
6 °C 10 km+ - 040° 040° 14 kt METAR EDAH 211220Z 04014KT 010V080 9999 SCT030 SCT034 06/M01 Q1024
13:50
V
7 °C 10 km+ - 040° 040° 12 kt METAR EDAH 211150Z 04012KT 010V080 9999 FEW027 07/M01 Q1024
13:20
M
6 °C 10 km+ 2.300 ft 060° 060° 12 kt METAR EDAH 211120Z 06012KT 020V090 9999 BKN023 06/00 Q1024
12:50
V
6 °C 10 km+ 3.500 ft 070° 070° 6 kt METAR EDAH 211050Z 07006KT 360V150 9999 SCT022 BKN035 06/01 Q1024
12:20
V
6 °C 10 km+ 3.900 ft 080° 080° 7 kt METAR EDAH 211020Z 08007KT 030V100 9999 SCT019 BKN039 06/02 Q1024
11:50
M
5 °C 10 km+ 3.000 ft 290° 290° 3 kt METAR EDAH 210950Z 29003KT 230V350 9999 SCT019 BKN030 05/02 Q1024
11:20
V
5 °C 10 km+ 3.200 ft 340° 340° 5 kt METAR EDAH 210920Z 34005KT 280V040 9999 -RA FEW022 BKN032 OVC043 05/02 Q1024
10:50
M
4 °C 10 km+ 2.100 ft 060° 060° 9 kt METAR EDAH 210850Z 06009KT 9999 -RA OVC021 04/02 Q1024
10:20
V
6 °C 10 km+ - 350° 350° 5 kt METAR EDAH 210820Z 35005KT 310V030 9999 FEW032 06/M01 Q1024
09:50
V
6 °C 10 km+ - 310° 310° 6 kt METAR EDAH 210750Z 31006KT 260V020 CAVOK 06/00 Q1023
09:20
V
6 °C 10 km+ - 310° 310° 4 kt METAR EDAH 210720Z 31004KT 250V360 CAVOK 06/M02 Q1023
08:50
V
5 °C 10 km+ - 280° 280° 3 kt METAR EDAH 210650Z 28003KT CAVOK 05/M04 Q1023
08:20
V
4 °C 10 km+ - 290° 290° 2 kt METAR EDAH 210620Z AUTO 29002KT 9999 // NCD 04/M00 Q1023
07:50
V
3 °C 10 km+ - Var Var 1 kt METAR EDAH 210550Z AUTO VRB01KT 9999 // NCD 03/00 Q1023
07:20
V
1 °C 10 km+ - Var Var 2 kt METAR EDAH 210520Z AUTO VRB02KT 9999 // NCD 01/M01 Q1023
06:50
V
0 °C 10 km+ 6.700 ft Var Var 2 kt METAR EDAH 210450Z AUTO VRB02KT 9999 // BKN067/// M00/M02 Q1023
06:20
V
-1 °C 10 km+ 6.600 ft 360° 360° 0 kt METAR EDAH 210420Z AUTO 00000KT 9999 // BKN066/// M01/M03 Q1022
Cambiar esta información